Showing default

ORBCOMM FM 113, 41185

Orbit data source: Space-Track

ORBCOMM FM 113, 41185 is a payload satellite owned by Orbcomm (US) in LEO that was launched on Tue, 22 Dec 2015 UTC via an FALCON 9 launch vehicle from the Air Force Eastern Test Range (AFETR). Payload-class satellites include a variety of spacecraft equipped with specific instruments for various scientific and technological missions. These include communications satellites like Starlink; space stations such as the ISS; scientific satellites like the Hubble; Earth observation satellites from companies like Planet Labs, Umbra, and HawkEye 360; GPS; miniature CubeSats for education and research; and military/defense satellites.

Loading next visibility...
Identifier
41185, 2015-081G
Orbit
LEO
Country
Flag of USUS / ORB
Related business
Manufacturer
SNC Louisville
Mission
Partially operational Commercial Communications
Bus & Motor
SN-100A, Unknown motor
Mass
172 kg wet, 158 kg dry
Launch date (UTC)
2015-12-22 (10 years ago)
Launch vehicle
FALCON 9
Launch site
Air Force Eastern Test Range (AFETR)
Object type
Payload
Rocket body
Debris
Shape & HBR
Box + 1 Pan + 1 Ant, 5.3 m
Radar Cross Section
2.222 m², Medium (>0.1 m² and < 1m²)

Expand to show TLE details & history
Last TLE update: 20 hours ago

TLE from 20 hours ago
0 ORBCOMM FM 113
1 41185U 15081G   26106.54813070  .00000204  00000-0  79454-4 0  9996
2 41185  47.0001 202.0508 0002323 274.3865  85.6755 14.58791095549930
Epoch: 2026-04-16T13:09Z
TLE epoch observation values (Epoch: 2026-04-16T13:09:18.492Z)
Latitude
-0.00004°
Longitude
160.02962°
Altitude
697.172 km
Speed
7.509 km/s
True Right ascension
13h 28m 12s
True Declination
0° 00' 00"
Sunlit
Object was in full shadow at epoch
Visualization orbit readout
Latitude
Unknown
Longitude
Unknown
Altitude
Unknown
Speed
Unknown
Apparent Right ascension
Unknown
Apparent Declination
Unknown
Sunlit
N/A
Visualization observer readout
Local Sidereal Time
15:56:29
Azimuth
Unknown
Elevation
Unknown
Doppler factor
Unknown
Orbital elements
Apogee altitude
699.959 km
Perigee altitude
696.671 km
Semi-major axis
7,076.452 km
Eccentricity
0.00023
Inclination
47.0001°
RAAN
202.0508°
Arg. of periapsis
274.3865°
True anomaly
85.70204°
Mean anomaly
85.6755°
Eccentric anomaly
85.68877°
Mean motion
3.64603 °/min
Orbital period
98.74 mins
BSTAR
0.000079454
Loading maneuver chart data...
Computing Atmospheric mass density...
Loading historical data...
Loading historical data...
Loading historical data...
Loading historical data...
Loading historical data...
Loading historical data...
Loading historical data...

Documentation

Showing up to 5 results
|